Waarnemingen

Advertentie
Mijn weer
Feldberg/Mecklenburg, Duitsland (10282): temperatuur & dauwpunt: 22.05.2018 12:00:00 - 28.05.2018 12:00:00 (CEST)Feldberg/Mecklenburg, Duitsland (10282): temperatuur 5cm & temperatuur -5cm: 22.05.2018 12:00:00 - 28.05.2018 12:00:00 (CEST)Feldberg/Mecklenburg, Duitsland (10282): temperatuur -20cm & temperatuur -100cm: 22.05.2018 12:00:00 - 28.05.2018 12:00:00 (CEST)Feldberg/Mecklenburg, Duitsland (10282): windsnelheid & windstoten: 22.05.2018 12:00:00 - 28.05.2018 12:00:00 (CEST)Feldberg/Mecklenburg, Duitsland (10282): windrichting: 22.05.2018 12:00:00 - 28.05.2018 12:00:00 (CEST)Feldberg/Mecklenburg, Duitsland (10282): luchtdruk: 22.05.2018 12:00:00 - 28.05.2018 12:00:00 (CEST)Feldberg/Mecklenburg, Duitsland (10282): zicht: 22.05.2018 12:00:00 - 28.05.2018 12:00:00 (CEST)Feldberg/Mecklenburg, Duitsland (10282): Zonneschijnduur: 22.05.2018 12:00:00 - 28.05.2018 12:00:00 (CEST)Feldberg/Mecklenburg, Duitsland (10282): neerslag: 22.05.2018 12:00:00 - 28.05.2018 12:00:00 (CEST)
Datum & Tijd tt [°C] td [°C] tt 5cm [°C] tt -5cm [°C] tt -20cm [°C] tt -100cm [°C] ff [km/u] ff [kn] fx [km/u] fx [kn] dd ppp [hPa] vv [km] sd [min] rr [mm]
28.05.2018 12:00:00 - - - - - - - - - - - - - - -
28.05.2018 11:00:00 24,4 17,1 28,4 26,7 19,4 15,1 15 8 22 12 OZO 1021,5 12 60 0,0
28.05.2018 10:00:00 22,3 16,7 25,8 23,7 18,9 15,1 14 8 20 11 OZO 1021,6 11 60 0,0
28.05.2018 09:00:00 20,8 16,0 23,5 20,8 18,6 15,1 12 6 17 9 OZO 1021,9 10 60 0,0
28.05.2018 08:00:00 18,2 15,1 20,0 18,4 18,6 15,1 10 6 15 8 O 1021,8 11 60 0,0
28.05.2018 07:00:00 16,9 14,3 17,8 16,9 18,9 15,0 8 4 16 9 ONO 1021,7 8 57 0,0
28.05.2018 06:00:00 15,1 13,8 14,3 16,3 19,2 15,0 10 5 16 9 O 1021,6 7 9 0,0
28.05.2018 05:00:00 14,9 13,6 14,0 16,5 19,6 15,0 11 6 21 12 O 1021,5 7 0 0,0
28.05.2018 04:00:00 15,2 13,4 14,0 16,9 20,0 15,0 13 7 18 10 ONO 1021,6 10 0 0,0
28.05.2018 03:00:00 15,5 12,9 14,4 17,4 20,5 15,0 13 7 19 11 ONO 1021,7 12 0 0,0
28.05.2018 02:00:00 15,6 12,7 14,4 18,1 21,0 15,0 11 6 18 10 O 1021,7 15 0 0,0
28.05.2018 01:00:00 17,2 12,6 16,0 18,8 21,5 15,0 13 7 21 12 ONO 1021,7 21 0 0,0
28.05.2018 00:00:00 17,8 12,4 16,9 19,5 22,0 15,0 17 9 31 17 ONO 1021,6 28 0 0,1
27.05.2018 23:00:00 16,5 13,7 15,3 20,2 22,6 15,0 19 10 31 17 ONO 1021,7 15 0 0,2
27.05.2018 22:00:00 16,7 13,1 16,4 21,1 23,3 15,0 16 9 33 18 O 1022,3 22 0 0,0
27.05.2018 21:00:00 17,2 12,6 16,7 22,3 24,0 15,0 21 11 35 19 ONO 1021,7 30 0 0,0
27.05.2018 20:00:00 17,5 12,6 17,1 24,2 24,6 15,0 18 10 28 15 O 1021,4 36 4 0,0
27.05.2018 19:00:00 18,0 13,8 17,2 26,7 25,0 15,0 13 7 26 14 ONO 1020,8 28 9 0,1
27.05.2018 18:00:00 17,0 13,9 16,0 30,5 24,8 15,0 18 10 45 24 ONO 1021,3 12 14 0,6
27.05.2018 17:00:00 25,9 12,5 29,4 34,3 24,1 15,0 14 7 25 14 ONO 1020,0 17 59 0,0
27.05.2018 16:00:00 25,6 12,1 30,5 34,3 23,1 15,0 9 5 20 11 O 1020,0 18 60 0,0
27.05.2018 15:00:00 25,0 13,2 30,9 33,6 22,0 15,0 11 6 18 10 OZO 1021,0 14 58 0,0
27.05.2018 14:00:00 23,2 14,3 30,4 32,0 20,9 15,0 11 6 20 11 N 1021,8 10 60 0,0
27.05.2018 13:00:00 20,7 13,6 27,8 28,9 19,9 15,0 9 5 15 8 NNO 1022,4 12 44 0,0
27.05.2018 12:00:00 19,1 13,4 24,6 27,3 19,1 15,0 8 4 15 8 NNO 1022,7 10 54 0,0
27.05.2018 11:00:00 17,8 13,7 25,8 23,5 18,6 15,0 9 5 16 9 N 1023,0 9 25 0,0
27.05.2018 10:00:00 17,1 13,5 21,5 20,9 18,3 14,9 7 4 14 8 O 1022,9 9 6 0,0
27.05.2018 09:00:00 15,0 13,1 17,8 19,0 18,2 14,9 11 6 16 9 NNO 1022,7 6 0 0,0
27.05.2018 08:00:00 14,0 12,8 15,8 17,6 18,2 14,9 5 3 12 6 ONO 1022,5 3,5 0 0,0
27.05.2018 07:00:00 13,0 12,5 13,8 16,6 18,4 14,9 6 4 11 6 NO 1022,4 1,2 0 0,0
27.05.2018 06:00:00 12,7 12,4 13,0 16,2 18,7 14,9 7 4 10 6 NNO 1022,4 1,5 0 0,0
27.05.2018 05:00:00 12,2 12,0 12,1 16,2 19,0 14,9 8 4 16 8 N 1022,5 1,1 0 0,0
27.05.2018 04:00:00 12,5 12,1 12,5 16,5 19,4 14,9 10 5 15 8 NNO 1022,9 2,4 0 0,0
27.05.2018 03:00:00 11,9 11,8 11,8 16,3 19,9 14,9 10 6 16 9 N 1023,2 0,4 0 0,0
27.05.2018 02:00:00 12,3 11,6 10,2 16,9 20,4 14,9 6 4 11 6 NNW 1023,3 5 0 0,0
27.05.2018 01:00:00 11,5 10,7 8,7 17,8 21,0 14,9 3 2 11 6 NW 1023,1 6 0 0,0
27.05.2018 00:00:00 13,9 12,1 11,5 18,9 21,5 14,9 7 4 13 7 NNW 1022,8 16 0 0,0
26.05.2018 23:00:00 14,7 12,9 12,3 20,2 22,1 14,9 6 3 13 7 NNW 1023,1 12 0 0,0
26.05.2018 22:00:00 15,3 13,4 13,8 21,7 22,5 14,9 10 6 22 12 NNO 1023,0 11 0 0,0
26.05.2018 21:00:00 17,6 13,3 16,6 23,3 22,8 14,9 14 7 22 12 NNO 1022,6 20 30 0,0
26.05.2018 20:00:00 19,1 13,5 18,7 25,3 22,9 14,9 10 5 19 10 NO 1022,2 21 11 0,0
26.05.2018 19:00:00 20,1 13,4 21,1 26,7 22,9 14,9 15 8 32 17 ONO 1022,1 19 52 0,0
26.05.2018 18:00:00 21,5 13,5 24,4 26,8 22,7 14,9 19 10 30 16 NO 1022,1 21 8 0,0
26.05.2018 17:00:00 21,5 12,4 22,7 29,2 22,2 14,9 13 7 24 13 ONO 1022,1 38 22 0,0
26.05.2018 16:00:00 23,0 13,2 28,4 30,2 21,4 14,8 11 6 16 9 O 1022,1 21 60 0,0
26.05.2018 15:00:00 21,1 13,2 24,0 27,9 20,9 14,8 8 4 14 8 OZO 1022,4 29 60 0,0
26.05.2018 14:00:00 19,4 16,0 21,5 23,8 20,7 14,8 9 5 19 10 O 1023,1 21 15 0,2
26.05.2018 13:00:00 17,1 14,7 17,5 25,3 20,1 14,8 15 8 24 13 NNO 1023,4 12 3 0,8
26.05.2018 12:00:00 20,8 12,5 24,9 26,4 19,3 14,8 6 3 14 8 OZO 1023,0 29 23 0,0
26.05.2018 11:00:00 20,9 12,2 26,9 23,7 18,8 14,8 6 3 14 7 O 1023,0 22 29 0,0
26.05.2018 10:00:00 19,1 11,7 22,7 21,6 18,4 14,8 8 4 14 7 NNO 1023,3 26 24 0,0
26.05.2018 09:00:00 18,1 12,0 21,9 19,6 18,2 14,8 7 4 15 8 OZO 1023,1 21 40 0,0
26.05.2018 08:00:00 16,0 12,0 17,8 17,0 18,3 14,7 4 2 8 4 O 1023,2 25 28 0,0
26.05.2018 07:00:00 12,9 11,0 14,9 15,3 18,7 14,7 4 2 6 4 ONO 1023,3 19 28 0,0
26.05.2018 06:00:00 10,0 9,1 9,1 15,1 19,1 14,7 0 0 7 4 N 1023,3 15 13 0,0
26.05.2018 05:00:00 9,1 8,6 6,4 15,5 19,6 14,7 4 2 5 3 N 1022,9 14 0 0,0
26.05.2018 04:00:00 9,0 7,7 7,0 16,2 20,2 14,7 3 2 7 4 NNO 1023,0 17 0 0,0
26.05.2018 03:00:00 8,3 7,2 7,1 16,9 20,7 14,7 4 2 11 6 N 1022,8 20 0 0,0
26.05.2018 02:00:00 9,6 8,0 8,1 17,8 21,3 14,7 4 2 11 6 NNW 1023,0 25 0 0,0
26.05.2018 01:00:00 9,8 7,5 8,4 18,7 21,9 14,7 3 2 11 6 N 1022,8 27 0 0,0
26.05.2018 00:00:00 11,0 8,4 9,7 19,8 22,6 14,6 8 4 13 7 NNO 1022,6 32 0 0,0
25.05.2018 23:00:00 13,9 8,8 12,4 21,0 23,2 14,6 7 4 12 7 NO 1022,6 45 0 0,0
25.05.2018 22:00:00 13,4 7,3 11,7 22,6 23,8 14,6 8 5 22 12 N 1022,6 56 0 0,0
25.05.2018 21:00:00 15,7 8,0 14,5 24,7 24,2 14,6 12 6 20 11 NNO 1022,2 53 53 0,0
25.05.2018 20:00:00 18,2 8,4 19,1 26,8 24,4 14,6 13 7 27 14 NNO 1021,8 52 60 0,0
25.05.2018 19:00:00 19,7 7,7 21,1 28,8 24,4 14,6 18 10 29 15 NO 1021,5 24 60 0,0
25.05.2018 18:00:00 21,5 8,3 24,6 30,3 24,1 14,6 17 9 27 15 NNO 1021,3 16 60 0,0
25.05.2018 17:00:00 21,6 8,3 25,7 31,2 23,7 14,6 19 10 29 15 NO 1021,6 20 60 0,0
25.05.2018 16:00:00 21,8 5,9 27,1 31,3 23,1 14,6 20 11 32 18 NNO 1021,8 19 60 0,0
25.05.2018 15:00:00 21,6 6,1 25,3 31,1 22,4 14,6 18 10 32 17 NNO 1022,0 21 53 0,0
25.05.2018 14:00:00 22,9 6,0 27,2 31,1 21,5 14,6 16 9 29 16 NO 1021,9 28 47 0,0
25.05.2018 13:00:00 22,9 6,8 28,5 30,3 20,6 14,6 15 8 29 16 ONO 1022,3 20 60 0,0
25.05.2018 12:00:00 22,9 7,7 27,0 28,2 19,7 14,5 17 9 29 16 OZO 1022,7 16 60 0,0
25.05.2018 11:00:00 21,7 7,9 26,2 25,5 19,0 14,5 16 9 27 15 ONO 1023,0 15 60 0,0
25.05.2018 10:00:00 20,3 8,1 23,9 22,8 18,5 14,5 16 9 27 14 ONO 1023,0 18 60 0,0
25.05.2018 09:00:00 19,0 7,8 22,7 20,0 18,3 14,5 14 8 24 13 O 1023,3 18 60 0,0
25.05.2018 08:00:00 16,5 6,8 18,4 17,7 18,4 14,5 16 9 23 12 ONO 1023,5 2,4 60 0,0
25.05.2018 07:00:00 14,8 7,4 15,1 15,8 18,7 14,4 12 7 20 11 ONO 1023,4 6 58 0,0
25.05.2018 06:00:00 13,3 7,8 12,0 15,1 19,2 14,4 8 5 16 9 NO 1023,5 8 17 0,0
25.05.2018 05:00:00 12,4 8,3 10,6 15,4 19,7 14,4 8 4 15 8 NO 1023,7 39 0 0,0
25.05.2018 04:00:00 12,6 8,6 9,3 16,1 20,3 14,4 8 5 14 8 NO 1023,8 29 0 0,0
25.05.2018 03:00:00 14,2 8,6 11,2 17,1 20,8 14,4 7 4 13 7 ONO 1023,7 29 0 0,0
25.05.2018 02:00:00 14,6 9,2 12,7 17,9 21,4 14,4 9 5 21 11 O 1023,8 29 0 0,0
25.05.2018 01:00:00 15,1 9,5 13,8 18,8 22,1 14,4 11 6 18 10 ONO 1023,5 29 0 0,0
25.05.2018 00:00:00 15,7 9,6 14,3 19,8 22,8 14,4 12 6 20 11 ONO 1023,4 31 0 0,0
24.05.2018 23:00:00 16,0 9,9 14,6 21,1 23,4 14,3 10 5 22 12 NO 1023,1 31 0 0,0
24.05.2018 22:00:00 16,9 9,8 15,6 22,8 24,1 14,3 11 6 24 13 NO 1022,9 35 0 0,0
24.05.2018 21:00:00 18,8 9,7 17,9 24,9 24,6 14,3 14 8 29 16 NO 1022,6 42 49 0,0
24.05.2018 20:00:00 20,6 9,5 21,5 27,4 24,9 14,3 21 11 34 19 NO 1022,1 11 60 0,0
24.05.2018 19:00:00 21,6 9,3 23,0 29,8 24,9 14,3 22 12 35 19 NO 1022,1 14 42 0,0
24.05.2018 18:00:00 23,7 8,1 26,6 31,7 24,6 14,3 17 9 37 20 O 1022,0 8 57 0,0
24.05.2018 17:00:00 23,5 8,4 27,1 33,1 24,0 14,3 24 13 41 22 O 1022,3 7 60 0,0
24.05.2018 16:00:00 24,0 8,3 27,8 33,4 23,2 14,3 24 13 37 20 O 1022,9 8 60 0,0
24.05.2018 15:00:00 23,6 7,7 28,5 33,3 22,3 14,3 24 13 45 24 O 1023,7 6 60 0,0
24.05.2018 14:00:00 23,1 7,5 27,7 32,4 21,2 14,3 21 12 41 22 O 1024,4 5 60 0,0
24.05.2018 13:00:00 22,6 6,8 27,5 30,8 20,2 14,3 24 13 40 22 O 1024,9 10 60 0,0
24.05.2018 12:00:00 21,4 8,4 25,4 28,8 19,2 14,3 26 14 38 20 O 1025,3 14 60 0,0
24.05.2018 11:00:00 20,9 10,2 24,7 26,2 18,3 14,3 20 11 36 19 O 1025,6 12 60 0,0
24.05.2018 10:00:00 18,9 10,1 22,3 23,0 17,7 14,2 18 10 28 15 O 1025,9 10 60 0,0
24.05.2018 09:00:00 17,7 10,1 20,1 19,7 17,4 14,2 16 8 24 13 OZO 1025,9 10 60 0,0
24.05.2018 08:00:00 15,5 8,9 17,4 16,6 17,4 14,2 14 7 22 12 O 1026,0 16 60 0,0
24.05.2018 07:00:00 14,0 7,7 14,4 14,6 17,8 14,2 16 9 24 13 ONO 1025,8 14 55 0,0
24.05.2018 06:00:00 12,0 7,5 10,1 13,9 18,2 14,2 9 5 18 10 ONO 1025,9 34 18 0,0
24.05.2018 05:00:00 12,1 7,9 10,0 14,3 18,7 14,2 11 6 16 8 ONO 1025,9 32 0 0,0
24.05.2018 04:00:00 12,3 7,9 10,5 15,0 19,2 14,1 10 5 15 8 ONO 1025,8 34 0 0,0
24.05.2018 03:00:00 12,7 8,0 10,7 15,7 19,8 14,1 10 5 18 10 ONO 1025,7 37 0 0,0
24.05.2018 02:00:00 13,1 7,9 11,5 16,4 20,4 14,1 10 5 20 11 ONO 1025,3 42 0 0,0
24.05.2018 01:00:00 13,4 7,7 12,1 17,3 21,1 14,1 11 6 24 13 NO 1024,8 40 0 0,0
24.05.2018 00:00:00 13,3 7,7 11,8 18,3 21,8 14,1 14 8 24 13 NO 1024,9 44 0 0,0
23.05.2018 23:00:00 14,4 7,5 13,0 19,5 22,5 14,1 16 9 28 15 NO 1024,8 46 0 0,0
23.05.2018 22:00:00 14,8 7,0 13,4 21,2 23,1 14,1 15 8 25 14 NO 1024,6 50 0 0,0
23.05.2018 21:00:00 16,3 6,9 15,5 23,4 23,6 14,1 21 12 31 17 NNO 1024,0 37 42 0,0
23.05.2018 20:00:00 18,1 7,5 19,2 25,9 23,9 14,1 20 11 33 18 NNO 1023,6 13 60 0,0
23.05.2018 19:00:00 19,6 6,2 22,1 28,2 24,0 14,1 26 14 33 18 NNO 1023,1 9 60 0,0
23.05.2018 18:00:00 21,3 8,0 24,7 29,7 23,8 14,0 21 11 38 21 NO 1022,9 21 60 0,0
23.05.2018 17:00:00 21,9 7,7 26,1 31,6 23,3 14,0 20 11 32 17 NO 1022,8 13 60 0,0
23.05.2018 16:00:00 22,9 7,5 28,6 32,6 22,5 14,0 19 10 31 17 NNO 1022,9 17 60 0,0
23.05.2018 15:00:00 22,4 5,3 28,4 31,9 21,6 14,0 18 10 30 16 ONO 1023,1 19 60 0,0
23.05.2018 14:00:00 21,4 5,6 26,4 30,5 20,7 14,0 20 11 32 17 NO 1023,2 15 60 0,0
23.05.2018 13:00:00 21,2 3,7 25,7 29,1 19,8 14,0 19 10 36 19 ONO 1023,2 13 60 0,0
23.05.2018 12:00:00 19,8 6,0 23,9 27,4 18,9 14,0 20 11 30 16 NO 1022,9 23 60 0,0
23.05.2018 11:00:00 19,3 8,0 23,2 25,6 18,0 14,0 18 10 32 18 O 1022,7 19 60 0,0
23.05.2018 10:00:00 18,0 7,8 21,1 22,4 17,5 13,9 18 10 26 14 O 1022,6 17 60 0,0
23.05.2018 09:00:00 16,5 6,6 19,0 19,1 17,2 13,9 19 10 27 15 ONO 1022,4 6 60 0,0
23.05.2018 08:00:00 15,0 7,3 16,7 16,1 17,3 13,9 12 7 23 13 ONO 1021,9 17 60 0,0
23.05.2018 07:00:00 13,2 7,6 13,7 14,0 17,7 13,9 10 5 16 9 NO 1021,3 27 54 0,0
23.05.2018 06:00:00 11,3 7,2 9,5 13,5 18,2 13,9 8 5 18 10 NO 1020,7 32 15 0,0
23.05.2018 05:00:00 9,2 7,0 6,3 14,0 18,7 13,8 6 4 16 9 NO 1020,2 26 0 0,0
23.05.2018 04:00:00 11,4 7,0 9,7 14,7 19,3 13,8 10 5 18 10 ONO 1020,0 34 0 0,0
23.05.2018 03:00:00 11,3 7,5 7,8 15,4 20,0 13,8 7 4 14 8 ONO 1019,7 41 0 0,0
23.05.2018 02:00:00 10,9 8,0 8,6 16,2 20,7 13,8 6 4 13 7 NO 1019,4 36 0 0,0
23.05.2018 01:00:00 9,9 7,9 7,5 17,4 21,4 13,8 7 4 10 5 NO 1019,1 27 0 0,0
23.05.2018 00:00:00 12,0 8,5 9,8 18,7 22,2 13,8 7 4 15 8 NO 1018,7 29 0 0,0
22.05.2018 23:00:00 13,5 8,1 11,9 20,2 23,0 13,8 7 4 22 12 NO 1018,3 35 0 0,0
22.05.2018 22:00:00 15,6 7,1 14,4 22,1 23,7 13,7 12 6 21 12 NO 1017,7 40 0 0,0
22.05.2018 21:00:00 17,7 6,9 16,6 24,5 24,2 13,7 12 7 26 14 NO 1017,0 37 42 0,0
22.05.2018 20:00:00 19,7 7,7 20,1 27,4 24,5 13,7 15 8 26 14 NO 1016,3 43 60 0,0
22.05.2018 19:00:00 21,5 5,1 24,5 30,1 24,5 13,7 11 6 18 10 O 1015,8 36 60 0,0
22.05.2018 18:00:00 21,7 3,7 25,4 32,0 24,1 13,7 11 6 18 10 ONO 1015,7 34 60 0,0
22.05.2018 17:00:00 22,3 5,1 26,8 33,2 23,5 13,7 13 7 26 14 ONO 1015,7 33 60 0,0
22.05.2018 16:00:00 21,9 3,9 27,3 33,9 22,6 13,7 13 7 28 15 OZO 1015,7 20 60 0,0
22.05.2018 15:00:00 22,3 6,5 28,1 33,5 21,7 13,7 10 6 24 13 O 1015,9 20 59 0,0
22.05.2018 14:00:00 21,6 5,4 26,3 31,0 20,6 13,7 13 7 30 16 O 1016,0 26 36 0,0
22.05.2018 13:00:00 21,7 5,7 26,7 31,9 19,4 13,7 15 8 29 16 ONO 1016,2 28 60 0,0
22.05.2018 12:00:00 21,3 5,5 25,7 28,9 18,2 13,7 10 6 23 12 OZO 1016,3 19 60 0,0

tt = temperatuur
td = dauwpunt
tt 5cm = temperatuur 5cm
tt -5cm = temperatuur -5cm
tt -20cm = temperatuur -20cm
tt -100cm = temperatuur -100cm
ff = windsnelheid
fx = windstoten
dd = windrichting
ppp = luchtdruk
vv = zicht
sd = Zonneschijnduur
rr = neerslag

Weerstations in de omgeving